This demonstration page uses our WeatherBlox Daily Observations layout. Learn more.

Hourly Observations for September 10, 2018

Temp ( °F °C ) Dew Point ( °F °C ) Humidity (%) Winds ( mph kmh ) Pressure ( in mb ) Visibility ( mi km ) Precip ( " mm )
12:15 am 00:15 Cloudy 60 15.7 59 15.1 96 96 SSE 7 11 30 1016 10 16.09344 0 0
12:35 am 00:35 Cloudy 61 15.9 59 15.1 95 95 S 7 11 30 1016 10 16.09344 0 0
12:55 am 00:55 Cloudy 61 16 59 15.1 94 94 SSE 9 15 30 1016 10 16.09344 0 0
1:15 am 01:15 Cloudy 62 16.5 59 15 91 91 S 10 17 29.97 1015 10 16.09344 0 0
1:35 am 01:35 Cloudy 62 16.5 59 15.1 92 92 S 10 17 29.97 1015 10 16.09344 0 0
1:55 am 01:55 Cloudy 62 16.5 59 15 91 91 SSE 10 17 29.94 1014 10 16.09344 0 0
2:15 am 02:15 Cloudy 62 16.5 59 15 91 91 SSE 9 15 29.97 1015 10 16.09344 0 0
2:35 am 02:35 Cloudy 62 16.5 59 15 91 91 SSE 9 15 29.94 1014 10 16.09344 0 0
2:55 am 02:55 Cloudy 61 16.3 59 14.8 91 91 S 9 15 29.97 1015 10 16.09344 0 0
3:15 am 03:15 Cloudy 61 16 58 14.7 92 92 S 7 11 29.94 1014 10 16.09344 0 0
3:35 am 03:35 Mostly Cloudy 60 15.8 58 14.5 92 92 S 8 13 29.97 1015 10 16.09344 0 0
3:55 am 03:55 Cloudy 60 15.7 58 14.5 93 93 S 5 7 29.97 1015 10 16.09344 0 0
4:15 am 04:15 Mostly Cloudy 60 15.7 58 14.5 93 93 S 8 13 29.97 1015 10 16.09344 0 0
4:35 am 04:35 Partly Cloudy 60 15.7 58 14.2 91 91 S 7 11 29.97 1015 10 16.09344 0 0
4:55 am 04:55 Mostly Cloudy 60 15.5 57 14.1 91 91 S 7 11 29.97 1015 10 16.09344 0 0
5:15 am 05:15 Partly Cloudy 59 15 57 14.1 94 94 S 5 7 29.97 1015 10 16.09344 0 0
5:35 am 05:35 Partly Cloudy 58 14.5 57 13.9 96 96 S 5 7 29.97 1015 10 16.09344 0 0
5:55 am 05:55 Mostly Cloudy 57 14.1 57 13.7 97 97 S 3 6 29.97 1015 10 16.09344 0 0
6:15 am 06:15 Partly Cloudy 57 14.1 57 13.9 99 99 S 3 6 29.97 1015 10 16.09344 0 0
6:35 am 06:35 Clear 57 14 57 13.7 98 98 S 7 11 29.97 1015 10 16.09344 0 0
6:55 am 06:55 Clear 58 14.5 57 14 97 97 S 9 15 29.97 1015 10 16.09344 0 0
7:15 am 07:15 Sunny 58 14.5 57 13.8 96 96 S 8 13 29.97 1015 10 16.09344 0 0
7:35 am 07:35 Sunny 58 14.5 57 14 97 97 S 9 15 29.97 1015 10 16.09344 0 0
7:55 am 07:55 Sunny 58 14.7 57 14 96 96 S 7 11 29.97 1015 10 16.09344 0 0
8:15 am 08:15 Sunny 60 15.3 58 14.4 94 94 S 6 9 30 1016 10 16.09344 0 0
8:35 am 08:35 Sunny 61 15.9 58 14.7 93 93 S 8 13 30 1016 10 16.09344 0 0
8:55 am 08:55 Sunny 62 16.6 59 15 90 90 S 9 15 29.97 1015 10 16.09344 0 0
9:15 am 09:15 Sunny 63 17.3 59 15.1 87 87 S 12 19 29.97 1015 10 16.09344 0 0
9:35 am 09:35 Sunny 65 18.2 60 15.3 83 83 S 9 15 29.97 1015 10 16.09344 0 0
9:55 am 09:55 Sunny 66 18.9 60 15.4 80 80 S 13 20 29.97 1015 10 16.09344 0 0
10:15 am 10:15 Sunny 67 19.5 60 15.4 77 77 S 9 15 29.97 1015 10 16.09344 0 0
10:35 am 10:35 Sunny 69 20.3 61 15.9 76 76 S 8 13 29.94 1014 10 16.09344 0 0
10:55 am 10:55 Sunny 69 20.7 60 15.8 74 74 SSW 14 22 29.94 1014 10 16.09344 0 0
11:15 am 11:15 Sunny 70 20.9 60 15.8 73 73 S 12 19 29.94 1014 10 16.09344 0 0
11:35 am 11:35 Sunny 71 21.7 60 15.8 69 69 S 10 17 29.91 1013 10 16.09344 0 0
11:55 am 11:55 Sunny 72 22 60 15.7 68 68 S 13 20 29.94 1014 10 16.09344 0 0
12:15 pm 12:15 Sunny 73 22.7 61 16.1 66 66 S 12 19 29.94 1014 10 16.09344 0 0
12:35 pm 12:35 Sunny 73 23 61 15.9 64 64 S 14 22 29.91 1013 10 16.09344 0 0
12:55 pm 12:55 Sunny 74 23.2 60 15.3 61 61 S 15 24 29.88 1012 10 16.09344 0 0
1:15 pm 13:15 Sunny 75 23.7 60 15.6 61 61 S 13 20 29.88 1012 10 16.09344 0 0
1:35 pm 13:35 Sunny 76 24.2 61 16.1 61 61 S 17 28 29.88 1012 10 16.09344 0 0
1:55 pm 13:55 Sunny 76 24.3 60 15.6 58 58 S 14 22 29.88 1012 10 16.09344 0 0
2:15 pm 14:15 Sunny 76 24.7 60 15.6 57 57 S 14 22 29.85 1011 10 16.09344 0 0
2:35 pm 14:35 Sunny 76 24.6 60 15.7 58 58 S 17 28 29.85 1011 10 16.09344 0 0
2:55 pm 14:55 Sunny 77 24.8 61 16.2 59 59 S 17 28 29.85 1011 10 16.09344 0 0
3:15 pm 15:15 Sunny 78 25.3 62 16.5 58 58 S 16 26 29.85 1011 10 16.09344 0 0
3:35 pm 15:35 Sunny 77 25.1 62 16.4 59 59 S 16 26 29.85 1011 10 16.09344 0 0
3:55 pm 15:55 Sunny 77 25.2 62 16.7 59 59 S 16 26 29.85 1011 10 16.09344 0 0
4:15 pm 16:15 Sunny 78 25.5 62 16.8 59 59 S 15 24 29.83 1010 10 16.09344 0 0
4:35 pm 16:35 Sunny 78 25.6 63 17 59 59 S 17 28 29.83 1010 10 16.09344 0 0
4:55 pm 16:55 Sunny 78 25.5 62 16.8 59 59 S 12 19 29.83 1010 10 16.09344 0 0
5:15 pm 17:15 Sunny 78 25.4 63 17 60 60 S 14 22 29.83 1010 10 16.09344 0 0
5:35 pm 17:35 Sunny 77 25.2 63 17.1 61 61 SSE 14 22 29.83 1010 10 16.09344 0 0
5:55 pm 17:55 Sunny 77 24.9 63 17.1 62 62 SSE 15 24 29.83 1010 10 16.09344 0 0
6:15 pm 18:15 Sunny 76 24.6 62 16.9 62 62 SSE 16 26 29.83 1010 10 16.09344 0 0
6:35 pm 18:35 Sunny 76 24.2 62 16.5 62 62 SSE 14 22 29.83 1010 10 16.09344 0 0
6:55 pm 18:55 Sunny 75 23.7 61 16.3 63 63 SSE 12 19 29.83 1010 10 16.09344 0 0
7:15 pm 19:15 Sunny 73 22.7 61 16.2 67 67 SSE 9 15 29.83 1010 10 16.09344 0 0
7:35 pm 19:35 Sunny 71 21.4 61 16 71 71 SSE 8 13 29.85 1011 10 16.09344 0 0
7:55 pm 19:55 Clear 69 20.5 60 15.5 73 73 SSE 8 13 29.85 1011 10 16.09344 0 0
8:15 pm 20:15 Clear 67 19.6 59 15.1 75 75 SSE 8 13 29.85 1011 10 16.09344 0 0
8:35 pm 20:35 Clear 66 18.8 59 15 79 79 SSE 8 13 29.88 1012 10 16.09344 0 0
8:55 pm 20:55 Clear 65 18.2 59 15.2 83 83 SE 7 11 29.88 1012 10 16.09344 0 0
9:15 pm 21:15 Clear 64 18 60 15.3 84 84 SE 8 13 29.91 1013 10 16.09344 0 0
9:35 pm 21:35 Clear 64 18 59 15.1 83 83 SSE 9 15 29.91 1013 10 16.09344 0 0
9:55 pm 21:55 Clear 65 18.1 59 15 82 82 SSE 9 15 29.91 1013 10 16.09344 0 0
10:15 pm 22:15 Clear 65 18.1 59 15 82 82 SSE 10 17 29.91 1013 10 16.09344 0 0
10:35 pm 22:35 Clear 64 18 59 15 83 83 SSE 10 17 29.91 1013 10 16.09344 0 0
10:55 pm 22:55 Clear 64 17.7 59 15 84 84 SSE 12 19 29.91 1013 10 16.09344 0 0
11:15 pm 23:15 Clear 63 17.4 59 15.2 87 87 SSE 9 15 29.91 1013 10 16.09344 0 0
11:35 pm 23:35 Clear 63 17.2 60 15.5 90 90 SSE 10 17 29.91 1013 10 16.09344 0 0
11:55 pm 23:55 Clear 63 17 60 15.7 92 92 SSE 10 17 29.91 1013 10 16.09344 0 0

Powered by AerisWeather